• Join FlightAware (Why Join?)
  • Login
  • US Flag GB Flag 
12:39 EDT


 

Airport Tracker/Info


-or-


 

Live Flight TrackerFlight Track Log ✈ UAL3776 ✈ 08-Apr-2013 ✈ KIAD - KBUF

Flight Track Log - Related Links

Times and Time Zones

All times are in EDT time to prevent confusion due to time zone crossing. See the UAL3776 flight status page for this flight to view local times or setup timezone preferences in your user account.

Time Position Orientation Groundspeed Altitude Reporting Facility
EDT Latitude Longitude Course Direction KTS MPH feet Rate Location/Type
22:04 38.9833 -77.5333 North 217 250 2,500  Level Potomac TRACON
22:05 39.0500 -77.5333 360° North 287 330 4,800 2,820 Climbing Potomac TRACON
22:06 39.1333 -77.5167 North 285 328 8,200 3,060 Climbing Potomac TRACON
22:07 39.4069 -77.4500 North  Level FlightAware Approximate
22:07 39.2000 -77.5167 360° North 294 338 11,000  Level Potomac TRACON
22:08 39.5253 -77.4500 North  Level FlightAware Approximate
22:09 39.6437 -77.4500 North  Level FlightAware Approximate
22:09 39.3381 -77.4553 19° North  Level FlightAware Approximate
22:10 39.7621 -77.4500 North  Level FlightAware Approximate
22:13 39.7592 -77.4606 360° North 391 450 20,900  Level New York Center
22:14 39.8739 -77.4578 North 397 457 21,600 1,140 Climbing New York Center
22:15 39.9828 -77.4872 348° North 402 463 23,300 1,140 Climbing New York Center
22:16 40.1706 -77.4333 North  Level FlightAware Approximate
22:16 40.0928 -77.5306 343° North 407 468 24,000  Level New York Center
22:17 40.2890 -77.4333 360° North  Level FlightAware Approximate
22:17 40.2075 -77.5661 347° North 413 475 24,000  Level New York Center
22:18 40.4074 -77.4333 360° North  Level FlightAware Approximate
22:19 40.4128 -77.6461 343° North 447 514 24,000  Level Cleveland Center
22:20 40.5225 -77.6878 344° North 435 501 24,000  Level Cleveland Center
22:21 40.6361 -77.7319 344° North 425 489 24,000  Level Cleveland Center
22:22 40.7456 -77.7739 344° North 420 483 24,000  Level Cleveland Center
22:23 40.8592 -77.8183 344° North 420 483 24,000  Level Cleveland Center
22:24 40.9686 -77.8606 344° North 420 483 24,000  Level Cleveland Center
22:25 41.0822 -77.9028 344° North 420 483 24,000  Level Cleveland Center
22:26 41.1939 -77.9478 343° North 420 483 24,000  Level Cleveland Center
22:27 41.3158 -77.9953 344° North 426 490 24,000  Level Cleveland Center
22:28 41.4253 -78.0381 344° North 426 490 24,000 -780 Level Cleveland Center
22:29 41.5386 -78.0808 344° North 426 490 22,500 -1,740 Descending Cleveland Center
22:30 41.6481 -78.1239 344° North 426 490 20,600 -1,920 Descending Cleveland Center
22:31 41.7575 -78.1697 343° North 426 490 18,700 -1,920 Descending Cleveland Center
22:32 41.8689 -78.2158 343° North 426 490 16,800 -1,980 Descending Cleveland Center
22:33 41.9697 -78.2567 343° North 421 484 14,800 -1,980 Descending Cleveland Center
22:34 42.0622 -78.2925 344° North 377 434 12,900 -1,860 Descending Cleveland Center
22:35 42.1506 -78.3286 343° North 348 400 11,100 -960 Descending Cleveland Center
22:36 42.2325 -78.3594 344° North 335 386 11,000  Descending Cleveland Center
22:37 42.3228 -78.3983 342° North 335 386 11,100  Climbing Cleveland Center
22:38 42.4131 -78.4317 345° North 335 386 11,000 -60 Descending Cleveland Center
22:39 42.4992 -78.4683 343° North 329 379 11,000 -420 Level Cleveland Center
22:40 42.5769 -78.4994 344° North 308 354 10,200 -1,140 Descending Cleveland Center
22:41 42.6506 -78.5308 343° North 293 337 8,800 -1,560 Descending Cleveland Center
22:42 42.7342 -78.5564 347° North 279 321 7,200 -1,500 Descending Cleveland Center
22:43 42.8156 -78.5539 North 284 327 5,900 -1,380 Descending Cleveland Center
22:44 42.8947 -78.5514 North 284 327 4,500 -1,380 Descending Cleveland Center
22:45 42.9575 -78.5747 345° North 273 314 3,200 -1,320 Descending Cleveland Center